Time,TemperatureF,DewpointF,PressureIn,WindDirection,WindDirectionDegrees,WindSpeedMPH,WindSpeedGustMPH,Humidity,HourlyPrecipIn,Conditions,Clouds,dailyrainin,SolarRadiationWatts/m^2,SoftwareType,DateUTC
2013-02-05 00:21:00,54.0,54.0,-100.00,ENE,58,0.0,3.0,100,0.11,,,0.19,0.000000,,2013-02-05 06:21:00,
2013-02-05 00:32:00,54.0,54.0,-100.00,ENE,58,0.0,3.0,100,0.11,,,0.19,0.000000,,2013-02-05 06:32:00,
2013-02-05 00:42:00,54.0,54.0,-100.00,ENE,58,0.0,3.0,100,0.11,,,0.19,0.000000,,2013-02-05 06:42:00,
2013-02-05 00:51:00,55.0,55.0,-100.00,ENE,66,0.0,5.0,100,0.08,,,0.27,0.000000,,2013-02-05 06:51:00,
2013-02-05 01:11:00,55.0,55.0,-100.00,ENE,66,0.0,5.0,100,0.08,,,0.27,0.000000,,2013-02-05 07:11:00,
2013-02-05 01:22:00,55.0,55.0,-100.00,ENE,66,0.0,5.0,100,0.08,,,0.27,0.000000,,2013-02-05 07:22:00,
2013-02-05 01:32:00,55.0,55.0,-100.00,ENE,66,0.0,5.0,100,0.08,,,0.27,0.000000,,2013-02-05 07:32:00,
2013-02-05 01:41:00,55.0,55.0,-100.00,ENE,66,0.0,5.0,100,0.08,,,0.27,0.000000,,2013-02-05 07:41:00,
2013-02-05 01:51:00,55.0,55.0,-100.00,NNE,22,3.0,5.0,100,0.15,,,-99.99,0.000000,,2013-02-05 07:51:00,
2013-02-05 02:11:00,55.0,55.0,-100.00,NNE,22,3.0,5.0,100,0.15,,,-99.99,0.000000,,2013-02-05 08:11:00,
2013-02-05 02:21:00,55.0,55.0,-100.00,NNE,22,3.0,5.0,100,0.15,,,-99.99,0.000000,,2013-02-05 08:21:00,
2013-02-05 02:31:00,55.0,55.0,-100.00,NNE,22,3.0,5.0,100,0.15,,,-99.99,0.000000,,2013-02-05 08:31:00,
2013-02-05 02:41:00,55.0,55.0,-100.00,NNE,22,3.0,5.0,100,0.15,,,-99.99,0.000000,,2013-02-05 08:41:00,
2013-02-05 02:51:00,56.0,56.0,-100.00,East,97,5.0,11.0,100,0.22,,,0.64,0.000000,,2013-02-05 08:51:00,
2013-02-05 03:11:00,56.0,56.0,-100.00,East,97,5.0,11.0,100,0.22,,,0.64,0.000000,,2013-02-05 09:11:00,
2013-02-05 03:21:00,56.0,56.0,-100.00,East,97,5.0,11.0,100,0.22,,,0.64,0.000000,,2013-02-05 09:21:00,
2013-02-05 03:32:00,56.0,56.0,-100.00,East,97,5.0,11.0,100,0.22,,,0.64,0.000000,,2013-02-05 09:32:00,
2013-02-05 03:42:00,56.0,56.0,-100.00,East,97,5.0,11.0,100,0.22,,,0.64,0.000000,,2013-02-05 09:42:00,
2013-02-05 03:51:00,56.0,56.0,-100.00,East,98,5.0,12.0,100,0.03,,,0.67,0.000000,,2013-02-05 09:51:00,
2013-02-05 04:11:00,56.0,56.0,-100.00,East,98,5.0,12.0,100,0.03,,,0.67,0.000000,,2013-02-05 10:11:00,
2013-02-05 04:21:00,56.0,56.0,-100.00,East,98,5.0,12.0,100,0.03,,,0.67,0.000000,,2013-02-05 10:21:00,
2013-02-05 04:32:00,56.0,56.0,-100.00,East,98,5.0,12.0,100,0.03,,,0.67,0.000000,,2013-02-05 10:32:00,
2013-02-05 04:42:00,56.0,56.0,-100.00,East,98,5.0,12.0,100,0.03,,,0.67,0.000000,,2013-02-05 10:42:00,
2013-02-05 04:51:00,57.0,57.0,-100.00,East,97,5.0,11.0,100,0.00,,,0.67,0.000000,,2013-02-05 10:51:00,
2013-02-05 05:11:00,57.0,57.0,-100.00,East,97,5.0,11.0,100,0.00,,,0.67,0.000000,,2013-02-05 11:11:00,
2013-02-05 05:22:00,57.0,57.0,-100.00,East,97,5.0,11.0,100,0.00,,,0.67,0.000000,,2013-02-05 11:22:00,
2013-02-05 05:32:00,57.0,57.0,-100.00,East,97,5.0,11.0,100,0.00,,,0.67,0.000000,,2013-02-05 11:32:00,
2013-02-05 05:42:00,57.0,57.0,-100.00,East,97,5.0,11.0,100,0.00,,,0.67,0.000000,,2013-02-05 11:42:00,
2013-02-05 05:51:00,58.0,58.0,-100.00,East,96,5.0,11.0,100,0.00,,,0.67,0.000000,,2013-02-05 11:51:00,
2013-02-05 06:12:00,58.0,58.0,-100.00,East,96,5.0,11.0,100,0.00,,,0.67,0.000000,,2013-02-05 12:12:00,
2013-02-05 06:22:00,58.0,58.0,-100.00,East,96,5.0,11.0,100,0.00,,,0.67,0.000000,,2013-02-05 12:22:00,
2013-02-05 06:32:00,58.0,58.0,-100.00,East,96,5.0,11.0,100,0.00,,,0.67,0.000000,,2013-02-05 12:32:00,
2013-02-05 06:42:00,58.0,58.0,-100.00,East,96,5.0,11.0,100,0.00,,,0.67,0.000000,,2013-02-05 12:42:00,
2013-02-05 06:51:00,58.0,58.0,-100.00,East,97,4.0,11.0,100,0.00,,,0.67,0.000000,,2013-02-05 12:51:00,
2013-02-05 07:12:00,58.0,58.0,-100.00,East,97,4.0,11.0,100,0.00,,,0.67,0.000000,,2013-02-05 13:12:00,
2013-02-05 07:22:00,58.0,58.0,-100.00,East,97,4.0,11.0,100,0.00,,,0.67,0.000000,,2013-02-05 13:22:00,
2013-02-05 07:32:00,58.0,58.0,-100.00,East,97,4.0,11.0,100,0.00,,,0.67,0.000000,,2013-02-05 13:32:00,
2013-02-05 07:42:00,58.0,58.0,-100.00,East,97,4.0,11.0,100,0.00,,,0.67,0.000000,,2013-02-05 13:42:00,
2013-02-05 07:51:00,59.0,59.0,-100.00,NE,39,3.0,10.0,100,0.00,,,0.67,7.000000,,2013-02-05 13:51:00,
2013-02-05 08:12:00,59.0,59.0,-100.00,NE,39,3.0,10.0,100,0.00,,,0.67,7.000000,,2013-02-05 14:12:00,
2013-02-05 08:21:00,59.0,59.0,-100.00,NE,39,3.0,10.0,100,0.00,,,0.67,7.000000,,2013-02-05 14:21:00,
2013-02-05 08:32:00,59.0,59.0,-100.00,NE,39,3.0,10.0,100,0.00,,,0.67,7.000000,,2013-02-05 14:32:00,
2013-02-05 08:42:00,59.0,59.0,-100.00,NE,39,3.0,10.0,100,0.00,,,0.67,7.000000,,2013-02-05 14:42:00,
2013-02-05 08:51:00,60.0,60.0,-100.00,ENE,75,2.0,12.0,100,0.01,,,0.68,19.000000,,2013-02-05 14:51:00,
2013-02-05 09:21:00,60.0,60.0,-100.00,ENE,75,2.0,12.0,100,0.01,,,0.68,19.000000,,2013-02-05 15:21:00,
2013-02-05 09:32:00,60.0,60.0,-100.00,ENE,75,2.0,12.0,100,0.01,,,0.68,19.000000,,2013-02-05 15:32:00,
2013-02-05 09:41:00,60.0,60.0,-100.00,ENE,75,2.0,12.0,100,0.01,,,0.68,19.000000,,2013-02-05 15:41:00,
2013-02-05 09:51:00,64.0,61.0,-100.00,ESE,105,7.0,13.0,90,0.00,,,-99.99,255.000000,,2013-02-05 15:51:00,
2013-02-05 10:22:00,64.0,61.0,-100.00,ESE,105,7.0,13.0,90,0.00,,,-99.99,255.000000,,2013-02-05 16:22:00,
2013-02-05 10:32:00,64.0,61.0,-100.00,ESE,105,7.0,13.0,90,0.00,,,-99.99,255.000000,,2013-02-05 16:32:00,
2013-02-05 10:42:00,64.0,61.0,-100.00,ESE,105,7.0,13.0,90,0.00,,,-99.99,255.000000,,2013-02-05 16:42:00,
2013-02-05 10:51:00,65.0,61.0,-100.00,ESE,104,5.0,15.0,88,0.00,,,-99.99,352.000000,,2013-02-05 16:51:00,
2013-02-05 11:22:00,65.0,61.0,-100.00,ESE,104,5.0,15.0,88,0.00,,,-99.99,352.000000,,2013-02-05 17:22:00,
2013-02-05 11:32:00,65.0,61.0,-100.00,ESE,104,5.0,15.0,88,0.00,,,-99.99,352.000000,,2013-02-05 17:32:00,
2013-02-05 11:42:00,65.0,61.0,-100.00,ESE,104,5.0,15.0,88,0.00,,,-99.99,352.000000,,2013-02-05 17:42:00,
2013-02-05 11:51:00,66.0,62.0,-100.00,SE,126,3.0,11.0,87,0.00,,,0.68,205.000000,,2013-02-05 17:51:00,
2013-02-05 12:11:00,66.0,62.0,-100.00,SE,126,3.0,11.0,87,0.00,,,0.68,205.000000,,2013-02-05 18:11:00,
2013-02-05 12:22:00,66.0,62.0,-100.00,SE,126,3.0,11.0,87,0.00,,,0.68,205.000000,,2013-02-05 18:22:00,
2013-02-05 12:32:00,66.0,62.0,-100.00,SE,126,3.0,11.0,87,0.00,,,0.68,205.000000,,2013-02-05 18:32:00,
2013-02-05 12:42:00,66.0,62.0,-100.00,SE,126,3.0,11.0,87,0.00,,,0.68,205.000000,,2013-02-05 18:42:00,
2013-02-05 12:51:00,66.0,62.0,-100.00,NE,45,3.0,8.0,88,0.00,,,0.68,123.000000,,2013-02-05 18:51:00,
2013-02-05 13:22:00,66.0,62.0,-100.00,NE,45,3.0,8.0,88,0.00,,,0.68,123.000000,,2013-02-05 19:22:00,
2013-02-05 13:32:00,66.0,62.0,-100.00,NE,45,3.0,8.0,88,0.00,,,0.68,123.000000,,2013-02-05 19:32:00,
2013-02-05 13:42:00,66.0,62.0,-100.00,NE,45,3.0,8.0,88,0.00,,,0.68,123.000000,,2013-02-05 19:42:00,
2013-02-05 13:51:00,69.0,63.0,-100.00,ESE,105,3.0,6.0,80,0.00,,,0.68,230.000000,,2013-02-05 19:51:00,
2013-02-05 14:11:00,69.0,63.0,-100.00,ESE,105,3.0,6.0,80,0.00,,,0.68,230.000000,,2013-02-05 20:11:00,
2013-02-05 14:21:00,69.0,63.0,-100.00,ESE,105,3.0,6.0,80,0.00,,,0.68,230.000000,,2013-02-05 20:21:00,
2013-02-05 14:32:00,69.0,63.0,-100.00,ESE,105,3.0,6.0,80,0.00,,,0.68,230.000000,,2013-02-05 20:32:00,
2013-02-05 14:42:00,69.0,63.0,-100.00,ESE,105,3.0,6.0,80,0.00,,,0.68,230.000000,,2013-02-05 20:42:00,
2013-02-05 14:51:00,69.0,62.0,-100.00,ESE,111,4.0,7.0,78,0.00,,,0.68,314.000000,,2013-02-05 20:51:00,
2013-02-05 15:22:00,69.0,62.0,-100.00,ESE,111,4.0,7.0,78,0.00,,,0.68,314.000000,,2013-02-05 21:22:00,
2013-02-05 15:32:00,69.0,62.0,-100.00,ESE,111,4.0,7.0,78,0.00,,,0.68,314.000000,,2013-02-05 21:32:00,
2013-02-05 15:42:00,69.0,62.0,-100.00,ESE,111,4.0,7.0,78,0.00,,,0.68,314.000000,,2013-02-05 21:42:00,
2013-02-05 15:51:00,69.0,62.0,-100.00,East,85,2.0,6.0,79,0.00,,,0.68,196.000000,,2013-02-05 21:51:00,
2013-02-05 16:11:00,69.0,62.0,-100.00,East,85,2.0,6.0,79,0.00,,,0.68,196.000000,,2013-02-05 22:11:00,
2013-02-05 16:22:00,69.0,62.0,-100.00,East,85,2.0,6.0,79,0.00,,,0.68,196.000000,,2013-02-05 22:22:00,
2013-02-05 16:32:00,69.0,62.0,-100.00,East,85,2.0,6.0,79,0.00,,,0.68,196.000000,,2013-02-05 22:32:00,
2013-02-05 16:42:00,69.0,62.0,-100.00,East,85,2.0,6.0,79,0.00,,,0.68,196.000000,,2013-02-05 22:42:00,
2013-02-05 16:51:00,68.0,62.0,-100.00,NE,42,1.0,4.0,80,0.00,,,0.68,96.000000,,2013-02-05 22:51:00,
2013-02-05 17:11:00,68.0,62.0,-100.00,NE,42,1.0,4.0,80,0.00,,,0.68,96.000000,,2013-02-05 23:11:00,
2013-02-05 17:22:00,68.0,62.0,-100.00,NE,42,1.0,4.0,80,0.00,,,0.68,96.000000,,2013-02-05 23:22:00,
2013-02-05 17:32:00,68.0,62.0,-100.00,NE,42,1.0,4.0,80,0.00,,,0.68,96.000000,,2013-02-05 23:32:00,
2013-02-05 17:42:00,68.0,62.0,-100.00,NE,42,1.0,4.0,80,0.00,,,0.68,96.000000,,2013-02-05 23:42:00,
2013-02-05 17:51:00,64.0,62.0,-100.00,WNW,292,0.0,2.0,94,0.00,,,0.68,22.000000,,2013-02-05 23:51:00,
2013-02-05 18:11:00,64.0,62.0,-100.00,WNW,292,0.0,2.0,94,0.00,,,0.68,22.000000,,2013-02-06 00:11:00,
2013-02-05 18:22:00,64.0,62.0,-100.00,WNW,292,0.0,2.0,94,0.00,,,0.68,22.000000,,2013-02-06 00:22:00,
2013-02-05 18:32:00,64.0,62.0,-100.00,WNW,292,0.0,2.0,94,0.00,,,0.68,22.000000,,2013-02-06 00:32:00,
2013-02-05 18:42:00,64.0,62.0,-100.00,WNW,292,0.0,2.0,94,0.00,,,0.68,22.000000,,2013-02-06 00:42:00,
2013-02-05 18:51:00,59.0,59.0,-100.00,NW,304,0.0,3.0,100,0.00,,,0.65,0.000000,,2013-02-06 00:51:00,
2013-02-05 19:12:00,59.0,59.0,-100.00,NW,304,0.0,3.0,100,0.00,,,0.65,0.000000,,2013-02-06 01:12:00,
2013-02-05 19:22:00,59.0,59.0,-100.00,NW,304,0.0,3.0,100,0.00,,,0.65,0.000000,,2013-02-06 01:22:00,
2013-02-05 19:32:00,59.0,59.0,-100.00,NW,304,0.0,3.0,100,0.00,,,0.65,0.000000,,2013-02-06 01:32:00,
2013-02-05 19:42:00,59.0,59.0,-100.00,NW,304,0.0,3.0,100,0.00,,,0.65,0.000000,,2013-02-06 01:42:00,
2013-02-05 19:51:00,56.0,56.0,-100.00,WSW,251,0.0,0.0,100,0.00,,,0.64,0.000000,,2013-02-06 01:51:00,
2013-02-05 20:11:00,56.0,56.0,-100.00,WSW,251,0.0,0.0,100,0.00,,,0.64,0.000000,,2013-02-06 02:11:00,
2013-02-05 20:22:00,56.0,56.0,-100.00,WSW,251,0.0,0.0,100,0.00,,,0.64,0.000000,,2013-02-06 02:22:00,
2013-02-05 20:32:00,56.0,56.0,-100.00,WSW,251,0.0,0.0,100,0.00,,,0.64,0.000000,,2013-02-06 02:32:00,
2013-02-05 20:42:00,56.0,56.0,-100.00,WSW,251,0.0,0.0,100,0.00,,,0.64,0.000000,,2013-02-06 02:42:00,
2013-02-05 20:51:00,54.0,54.0,-100.00,NNW,339,1.0,2.0,100,0.00,,,0.64,0.000000,,2013-02-06 02:51:00,
2013-02-05 21:12:00,54.0,54.0,-100.00,NNW,339,1.0,2.0,100,0.00,,,0.64,0.000000,,2013-02-06 03:12:00,
2013-02-05 21:22:00,54.0,54.0,-100.00,NNW,339,1.0,2.0,100,0.00,,,0.64,0.000000,,2013-02-06 03:22:00,
2013-02-05 21:32:00,54.0,54.0,-100.00,NNW,339,1.0,2.0,100,0.00,,,0.64,0.000000,,2013-02-06 03:32:00,
2013-02-05 21:42:00,54.0,54.0,-100.00,NNW,339,1.0,2.0,100,0.00,,,0.64,0.000000,,2013-02-06 03:42:00,
2013-02-05 21:51:00,53.0,53.0,-100.00,NNW,329,0.0,2.0,100,0.00,,,0.64,0.000000,,2013-02-06 03:51:00,
2013-02-05 22:11:00,53.0,53.0,-100.00,NNW,329,0.0,2.0,100,0.00,,,0.64,0.000000,,2013-02-06 04:11:00,
2013-02-05 22:21:00,53.0,53.0,-100.00,NNW,329,0.0,2.0,100,0.00,,,0.64,0.000000,,2013-02-06 04:21:00,
2013-02-05 22:32:00,53.0,53.0,-100.00,NNW,329,0.0,2.0,100,0.00,,,0.64,0.000000,,2013-02-06 04:32:00,
2013-02-05 22:42:00,53.0,53.0,-100.00,NNW,329,0.0,2.0,100,0.00,,,0.64,0.000000,,2013-02-06 04:42:00,
2013-02-05 22:51:00,52.0,52.0,-100.00,NNE,19,1.0,2.0,100,0.00,,,0.60,0.000000,,2013-02-06 04:51:00,
2013-02-05 23:22:00,52.0,52.0,-100.00,NNE,19,1.0,2.0,100,0.00,,,0.60,0.000000,,2013-02-06 05:22:00,
2013-02-05 23:32:00,52.0,52.0,-100.00,NNE,19,1.0,2.0,100,0.00,,,0.60,0.000000,,2013-02-06 05:32:00,
2013-02-05 23:41:00,52.0,52.0,-100.00,NNE,19,1.0,2.0,100,0.00,,,0.60,0.000000,,2013-02-06 05:41:00,
2013-02-05 23:51:00,51.0,51.0,-100.00,NW,309,0.0,2.0,100,0.00,,,0.49,0.000000,,2013-02-06 05:51:00,